Flag for India Weather past 2 weeks in Navi Mumbai, Maharashtra, India

Now
72 °F

Clear.


Feels Like: 76 °F
Forecast: 64 / 87 °F
Wind: No wind

Location: Bombay / Santacruz

Current Time: Mar 4, 2015 at 2:20:42 AM

Latest Report: Mar 4, 2015 at 1:40 AM


Visibility: 2 mi

Pressure: 29.92 "Hg

Humidity: 61%

Dew point: 57 °F

Location of Navi MumbaiLocation

Historic Weather in Navi Mumbai — Graph

°F

Navi Mumbai temperature yesterday

Maximum temperature yesterday: 81 °F (at 1:40 PM)
Minimum temperature yesterday: 70 °F (at 2:40 AM)
Average temperature yesterday: 74 °F

Past Weeks' High & Low Weather Summary

 TemperatureHumidityPressure
High102 °F (Feb 21, 3:40 PM)100% (Feb 27, 4:40 AM)30.04 "Hg (Feb 27, 4:40 AM)
Low68 °F (Feb 28, 11:40 PM)12% (Feb 21, 3:40 PM)29.71 "Hg (Mar 1, 4:40 PM)
Average79 °F61%29.87 "Hg
* Reported Feb 16 11:40 PM — Mar 3 11:40 PM, Navi Mumbai, Weather by CustomWeather, © 2015

Note: Actual official high and low records may vary slightly from our data, if they occured in-between our weather recording intervals... More about our weather records

Advertising

Navi Mumbai weather history for previous 24 hours

 ConditionsComfort  
Time TempWeatherWind HumidityBarometerVisibility
11:40 PM
Tue, Mar 3
73 °FClear.No wind57%29.95 "Hg2 mi
10:40 PM73 °FClear.No wind61%29.95 "Hg2 mi
9:40 PM75 °FClear.2 mph50%29.95 "Hg2 mi
8:40 PM75 °FClear.5 mph47%29.95 "Hg3 mi
7:40 PM77 °FClear.8 mph44%29.92 "Hg3 mi
6:40 PM77 °FClear.14 mph44%29.89 "Hg4 mi
5:40 PM79 °FClear.8 mph42%29.89 "Hg4 mi
4:40 PM79 °FClear.16 mph39%29.89 "Hg4 mi
3:40 PM77 °FPassing clouds.12 mph36%29.89 "Hg4 mi
1:40 PM81 °FScattered clouds.14 mph39%29.95 "Hg2 mi
12:40 PM79 °FScattered clouds.7 mph42%29.98 "Hg2 mi
11:40 AM77 °FScattered clouds.7 mph44%30.01 "Hg2 mi
10:40 AM77 °FScattered clouds.8 mph44%30.04 "Hg2 mi
9:40 AM75 °FScattered clouds.7 mph47%30.04 "Hg2 mi
8:40 AM72 °FScattered clouds.5 mph57%30.01 "Hg1 mi
7:40 AM70 °FScattered clouds.3 mph60%29.98 "Hg1 mi
6:40 AM70 °FHaze.No wind64%29.95 "Hg1 mi
5:40 AM70 °FHaze.No wind69%29.92 "Hg1 mi
4:40 AM70 °FHaze.No wind69%29.92 "Hg2 mi
3:40 AM70 °FHaze.No wind64%29.92 "Hg2 mi
2:40 AM70 °FHaze.No wind73%29.95 "Hg2 mi
Weather by CustomWeather, © 2015

See weather overviewHow to use our weather pages